www.pogodaiklimat.ru

Погода и климат >> Архив погоды >> Франция >> Сибур


ПОГОДА в Сибуре

  • Прогноз погоды в Сибуре
  • Монитор погоды в Сибуре

АРХИВ ПОГОДЫ в Сибуре

Время (UTC), дата Ветер
(напр.,м/с)
 
Видим.   Явления Облачность Т
(С)
Тd
(С)
f
(%)
Тe
(С)
Тes
(С)
Комфортность P
(гПа)
Po
(гПа)
Тmin
(С)
Tmax
(С)
R
(мм)
R24
(мм)
S
(см)
13 15.09 СЗ 1-1
{2}
н/о н/о +26.2 +18.3 62 +31 +31 очень
душно
1021.4 1016.4
14 15.09 З 1-2
{2}
н/о н/о +25.7 +18.6 65 +31 +31 очень
душно
1021.0 1016.0
15 15.09 З 3-4
{4}
20 км 9/9 1080 м
[Sc Ac lent]
+23.8 +19.3 76 +29 +29 душно 1021.2 1016.2
16 15.09 З 3-4
{5}
н/о н/о +24.1 +16.6 63 +28 +28 душно 1021.3 1016.3
17 15.09 Ю 2-2
{3}
н/о н/о +22.5 +18.3 77 +28 +28 душно 1020.6 1015.6 0.2
18 15.09 ЮВ 1
{7}
20 км 10/0 2000 м
[As op Ci fib]
+22.2 +18.0 77 +27 +27 душно 1020.5 1015.5 +17.0 +26.6 0.2
19 15.09 ЮВ 2-2
{2}
н/о н/о +21.2 +17.8 81 +25 +25 комфорт 1020.6 1015.6
20 15.09 Ю 1-2
{2}
н/о н/о +20.1 +17.3 84 +24 +24 комфорт 1020.8 1015.7
21 15.09 ЮЗ 1
{4}
12 км 9/9 1000 м
[Sc diur, vesp Ac cuf]
+20.2 +17.6 85 +24 +24 комфорт 1021.6 1016.5
22 15.09 Ю 2-2
{3}
н/о н/о +20.7 +17.1 80 +25 +25 комфорт 1021.7 1016.6
23 15.09 В 1-1
{2}
н/о н/о +20.8 +18.2 85 +26 +26 душно 1020.3 1015.3
00 16.09 Ю 1-2
{3}
н/о н/о +20.4 +17.8 85 +25 +25 комфорт 1020.8 1015.7
01 16.09 Ю 2-3
{3}
н/о н/о +20.1 +17.9 87 +24 +24 комфорт 1021.0 1015.9
02 16.09 Ю 1-2
{3}
н/о н/о +20.0 +17.2 84 +24 +24 комфорт 1020.4 1015.3
03 16.09 Ю 1-1
{1}
12 км 10/10 1000 м
[Sc]
+20.0 +17.8 87 +24 +24 комфорт 1020.4 1015.3
04 16.09 Ю 2-2
{2}
н/о н/о +19.7 +17.5 87 +23 +23 комфорт 1019.9 1014.8
05 16.09 Ю 2-2
{2}
н/о н/о +19.6 +17.4 87 +23 +23 комфорт 1020.1 1015.0
06 16.09 ЮЗ 1
{4}
15 км 9/9 1380 м
[Sc]
+19.3 +17.1 87 +23 +23 комфорт 1020.1 1015.0 +19.3 +22.2
07 16.09 ЮВ 1-1
{1}
н/о н/о +19.7 +17.8 89 +24 +24 комфорт 1020.1 1015.0
08 16.09 В 1-1
{2}
н/о н/о +20.5 +17.9 85 +26 +26 душно 1020.3 1015.3
09 16.09 СВ 1-2
{2}
15 км 9/9 1200 м
[Sc]
+23.4 +18.5 74 +30 +30 очень
душно
1020.5 1015.5
10 16.09 СВ 1-2
{2}
н/о н/о +24.5 +19.6 74 +30 +30 очень
душно
1020.7 1015.7
11 16.09 С 2-2
{2}
н/о н/о +24.6 +19.7 74 +30 +30 очень
душно
1020.5 1015.5
12 16.09 С 2-2
{2}
15 км 9/0 2000 м
[Ac As]
+25.1 +20.8 77 +31 +36 очень
душно
1020.3 1015.3
13 16.09 С 2-2
{3}
н/о н/о +25.3 +20.1 73 +31 +31 очень
душно
1019.7 1014.7
14 16.09 С 1-1
{2}
н/о н/о +25.4 +20.4 74 +31 +31 очень
душно
1019.3 1014.3
15 16.09 С 2
{4}
15 км 6/6 1000 м
[Sc Ac As]
+25.4 +20.2 73 +31 +34 очень
душно
1019.1 1014.1
16 16.09 З 1-2
{2}
н/о н/о +25.1 +19.0 69 +30 +30 душно 1019.0 1014.0
17 16.09 штиль 0-1
{1}
н/о н/о +25.0 +16.7 60 +29 +29 душно 1018.7 1013.7
18 16.09 ЮВ 1-1
{1}
н/о н/о +22.9 +16.0 65 +27 +27 душно 1018.8 1013.8 +19.2 +25.7
19 16.09 Ю 1-1
{2}
н/о н/о +21.5 +16.5 73 +25 +25 комфорт 1019.3 1014.3
20 16.09 Ю 1-1
{1}
н/о н/о +20.0 +16.8 82 +24 +24 комфорт 1019.7 1014.6
21 16.09 Ю 2-2
{2}
н/о н/о +19.1 +16.3 84 +21 +21 комфорт 1019.8 1014.7
22 16.09 З 1-1
{2}
н/о н/о +18.3 +15.9 86 +20 +20 1019.8 1014.7
23 16.09 штиль 0-1
{2}
н/о н/о +17.9 +15.7 87 +18 +18 1019.6 1014.5
00 17.09 ЮЗ 1-2
{2}
12 км 1/0 2000 м
[Ac cast]
+17.4 +15.4 88 +18 +18 1019.4 1014.3
01 17.09 Ю 2-2
{2}
н/о н/о +17.4 +15.4 88 +18 +18 1019.0 1013.9
02 17.09 Ю 1-1
{2}
н/о н/о +17.2 +15.2 88 +18 +18 1018.6 1013.5
03 17.09 ЮЗ 1-1
{2}
12 км ясно +17.1 +15.3 89 +18 +18 1018.1 1013.0
04 17.09 ЮЗ 1-2
{2}
н/о н/о +16.8 +15.1 90 +18 +18 1018.0 1012.9
05 17.09 ЮЗ 2-2
{2}
н/о н/о +16.6 +15.1 91 +17 +17 1018.0 1012.9
06 17.09 ЮЗ 2
{4}
15 км 5/5 1500 м
[Sc]
+17.0 +15.5 91 +18 +18 1018.3 1013.2 +16.5 +22.9
07 17.09 Ю 2-2
{2}
н/о н/о +18.0 +16.3 90 +19 +19 1018.5 1013.4
08 17.09 ЮЗ 1-1
{2}
н/о н/о +22.1 +18.1 78 +27 +27 душно 1018.6 1013.6
09 17.09 СЗ 1-2
{2}
14 км 6/0
[Ac lent]
+24.4 +18.6 70 +29 +32 душно 1018.7 1013.7
10 17.09 СЗ 1-2
{2}
н/о н/о +24.5 +19.8 75 +30 +30 очень
душно
1018.7 1013.7
11 17.09 СЗ 1-2
{2}
н/о н/о +24.5 +19.8 75 +30 +30 очень
душно
1018.4 1013.4
12 17.09 СЗ 1
{3}
15 км 5/5 1000 м
[Sc diur, vesp Ac und]
+25.5 +19.9 71 +31 +38 очень
душно
1017.9 1013.0
13 17.09 СЗ 1-2
{2}
н/о н/о +25.6 +19.7 70 +31 +31 очень
душно
1017.2 1012.3
14 17.09 СЗ 2-2
{2}
н/о н/о +24.9 +19.5 72 +30 +30 душно 1017.2 1012.2
15 17.09 СЗ 2-2
{3}
18 км 5/0 2000 м
[Ac lent]
+24.7 +19.8 74 +30 +34 очень
душно
1017.0 1012.0
16 17.09 СЗ 2-2
{3}
н/о н/о +22.7 +19.5 82 +29 +29 очень
душно
1016.5 1011.5
17 17.09 СЗ 1-1
{2}
н/о н/о +22.3 +19.7 85 +28 +28 душно 1016.2 1011.2
18 17.09 З 2
{4}
8000 м 9/5 800 м
[Cu Sc Ac As Ci sp]
+21.8 +19.5 87 +27 +27 душно 1016.1 1011.1 +17.0 +25.7
19 17.09 З 2-2
{2}
н/о н/о +21.3 +19.6 90 +26 +26 душно 1016.3 1011.3
20 17.09 ЮЗ 1-2
{3}
н/о н/о +20.8 +19.1 90 +26 +26 душно 1016.5 1011.5
21 17.09 З 2-3
{3}
н/о н/о +20.0 +18.5 91 +24 +24 комфорт 1016.3 1011.3
22 17.09 ЮЗ 2-3
{4}
н/о н/о +19.9 +18.4 91 +24 +24 комфорт 1016.5 1011.5
23 17.09 З 3-4
{4}
н/о н/о +20.2 +18.7 91 +24 +24 комфорт 1016.5 1011.5
00 18.09 ЮЗ 2-2
{5}
н/о н/о +19.8 +17.8 88 +23 +23 комфорт 1016.4 1011.4
01 18.09 ЮЗ 2-4
{4}
н/о н/о +20.1 +18.6 91 +24 +24 комфорт 1016.2 1011.2
02 18.09 ЮЗ 2-3
{4}
н/о н/о +20.2 +18.1 88 +24 +24 комфорт 1016.4 1011.4
03 18.09 ЮЗ 2-3
{3}
н/о н/о +20.0 +18.0 88 +24 +24 комфорт 1016.1 1011.1
04 18.09 Ю 2-2
{4}
н/о н/о +19.7 +18.0 90 +23 +23 комфорт 1016.0 1011.0 0.8
05 18.09 ЮЗ 2-3
{3}
н/о н/о +19.1 +17.6 91 +21 +21 комфорт 1015.7 1010.7
06 18.09 Ю 2
{5}
10 км 9/8 800 м
[St Ac As]
+18.8 +17.5 92 +21 +21 комфорт 1016.4 1011.3 +18.8 +21.8 0.8
07 18.09 ЮЗ 2-2
{3}
н/о н/о +18.9 +17.6 92 +21 +21 комфорт 1016.6 1011.5
08 18.09 Ю 1-3
{3}
н/о н/о +19.7 +18.2 91 +23 +23 комфорт 1017.5 1012.5
09 18.09 З 1
{4}
14 км 10/8 800 м
[St Ac As]
+20.3 +18.4 89 +25 +25 комфорт 1017.2 1012.2 0.2
10 18.09 ЮЗ 1-2
{3}
н/о н/о +21.1 +18.3 84 +25 +25 комфорт 1017.6 1012.6 0.2
11 18.09 З 2-3
{3}
н/о н/о +23.9 +19.4 76 +29 +29 душно 1017.6 1012.6
12 18.09 З 4
{8}
15 км 9/8 800 м
[Sc diur, vesp Ac lent]
+24.2 +18.8 72 +29 +30 душно 1017.3 1012.3 0.2
13 18.09 З 5-6
{6}
н/о н/о +23.8 +19.7 78 +29 +29 душно 1017.4 1012.4
14 18.09 СЗ 3-4
{6}
н/о н/о +23.2 +19.4 79 +30 +30 очень
душно
1017.7 1012.7
15 18.09 СЗ 2
{7}
22 км 6/6 900 м
[Sc diur, vesp Ac As]
+23.3 +18.8 76 +30 +32 очень
душно
1017.8 1012.8
16 18.09 СЗ 2-2
{3}
н/о н/о +22.8 +18.1 75 +28 +28 душно 1018.0 1013.0
17 18.09 З 2-3
{3}
н/о н/о +21.7 +17.9 79 +26 +26 душно 1018.0 1013.0
18 18.09 З 3
{7}
18 км 6/6 900 м
[Cu Sc Ac As]
+20.5 +17.7 84 +24 +24 комфорт 1018.0 1013.0 +18.8 +24.6
19 18.09 З 2-3
{4}
н/о н/о +20.0 +17.4 85 +23 +23 комфорт 1018.4 1013.4
20 18.09 ЮЗ 2-3
{4}
н/о н/о +19.9 +17.1 84 +23 +23 комфорт 1019.1 1014.0
21 18.09 ЮЗ 2
{5}
18 км 9/6 1200 м
[Sc As op]
+19.7 +17.3 86 +23 +23 комфорт 1019.2 1014.1
22 18.09 З 3-4
{4}
н/о н/о +20.0 +17.4 85 +23 +23 комфорт 1019.3 1014.2
23 18.09 ЮЗ 1-2
{4}
н/о н/о +19.5 +16.9 85 +23 +23 комфорт 1019.5 1014.4
00 19.09 ЮЗ 2
{5}
20 км 8/6 900 м
[Sc diur, vesp As op]
+18.7 +16.7 88 +21 +21 комфорт 1019.3 1014.2
01 19.09 ЮЗ 2-2
{2}
н/о н/о +18.7 +17.0 90 +21 +21 комфорт 1019.3 1014.2
02 19.09 ЮЗ 2-2
{2}
н/о н/о +18.1 +16.4 90 +19 +19 1018.9 1013.8
03 19.09 ЮЗ 2
{4}
18 км 10/8 900 м
[Sc diur, vesp As op]
+17.8 +16.1 90 +19 +19 1018.5 1013.4
04 19.09 ЮЗ 2-3
{3}
н/о н/о +17.1 +15.6 91 +17 +17 1018.3 1013.2
05 19.09 ЮЗ 2-2
{3}
н/о н/о +16.6 +15.3 92 +17 +17 1018.8 1013.7
06 19.09 Ю 2
{4}
н/о н/о +16.3 +15.0 92 +17 +17 1018.9 1013.8 +16.3 +20.5
07 19.09 ЮЗ 1-2
{2}
н/о н/о +16.9 +15.8 93 +18 +18 1019.0 1013.9
08 19.09 штиль 0-1
{2}
н/о н/о +19.8 +16.8 83 +22 +22 комфорт 1019.5 1014.4
09 19.09 З 1
{3}
20 км 4/4 900 м
[Cu med, cong Ac As]
+22.2 +17.3 74 +27 +31 душно 1019.5 1014.5
10 19.09 З 2-3
{3}
н/о н/о +23.4 +16.9 67 +29 +29 душно 1019.5 1014.5
11 19.09 З 3-4
{4}
н/о н/о +23.6 +17.6 69 +28 +28 душно 1019.1 1014.1
12 19.09 З 3
{7}
18 км 5/5 900 м
[Sc diur, vesp As trans]
+23.5 +17.5 69 +27 +33 душно 1019.0 1014.0
13 19.09 З 3-4
{4}
н/о н/о +23.6 +17.8 70 +28 +28 душно 1018.5 1013.5
14 19.09 СЗ 3-3
{4}
н/о н/о +22.9 +16.7 68 +28 +28 душно 1018.2 1013.2
15 19.09 З 2
{6}
18 км 6/6 800 м
[Sc diur, vesp As op]
+22.7 +16.5 68 +27 +30 душно 1017.9 1012.9
16 19.09 З 2-2
{3}
н/о н/о +22.1 +16.6 71 +26 +26 душно 1017.7 1012.7
17 19.09 З 2-2
{2}
н/о н/о +21.6 +16.5 73 +25 +25 комфорт 1017.7 1012.7
18 19.09 З 2-2
{3}
н/о н/о +20.4 +16.4 78 +24 +24 комфорт 1017.7 1012.7 +16.3 +23.7
19 19.09 ЮЗ 1-1
{2}
н/о н/о +19.5 +16.2 81 +23 +23 комфорт 1018.0 1012.9
20 19.09 Ю 1-2
{2}
н/о н/о +18.4 +16.0 86 +20 +20 1018.3 1013.2
21 19.09 ЮВ 1-1
{1}
18 км 4/0
[Ac und]
+17.9 +16.1 89 +20 +20 1018.5 1013.4
22 19.09 ЮВ 1-1
{2}
н/о н/о +17.4 +15.7 90 +19 +19 1018.1 1013.0
23 19.09 Ю 1-2
{2}
н/о н/о +17.0 +15.5 91 +18 +18 1017.6 1012.5
00 20.09 Ю 1-1
{2}
18 км ясно +16.7 +15.4 92 +18 +18 1017.3 1012.2
01 20.09 Ю 1-1
{2}
н/о н/о +16.3 +15.0 92 +18 +18 1017.0 1011.9
02 20.09 ЮВ 1-2
{2}
н/о н/о +16.0 +14.7 92 +17 +17 1016.6 1011.5
03 20.09 ЮВ 1-2
{2}
н/о н/о +16.1 +14.8 92 +17 +17 1015.9 1010.8
04 20.09 В 2-3
{3}
н/о н/о +16.3 +15.2 93 +17 +17 1015.4 1010.3
05 20.09 ЮВ 1-2
{2}
н/о н/о +15.7 +14.6 93 +16 +16 1015.0 1009.9
06 20.09 Ю 3
{5}
18 км 4/1 1000 м
[Sc Ac As]
+15.9 +14.9 94 +15 +15 1015.1 1010.0 +15.5 +20.3
07 20.09 В 2-3
{3}
н/о н/о +17.4 +15.9 91 +18 +18 1015.2 1010.1
08 20.09 В 2-5
{5}
н/о н/о +20.6 +16.6 78 +25 +25 комфорт 1015.2 1010.2
09 20.09 Ю 2
{9}
14 км 8/5 1000 м
[Cu Sc Ac As]
+24.4 +14.8 55 +27 +29 жарко 1015.3 1010.3
10 20.09 ЮВ 2-4
{5}
н/о н/о +25.9 +14.7 50 +28 +28 жарко 1015.0 1010.1
11 20.09 Ю 2-4
{4}
н/о н/о +28.0 +16.3 49 +31 +31 душно 1014.5 1009.6
12 20.09 ЮВ 1
{5}
20 км 9/8 900 м
[Sc diur, vesp Ac lent]
+29.9 +18.3 50 +35 +36 очень
душно
1013.9 1009.0
13 20.09 ЮВ 3-5
{5}
н/о н/о +30.9 +15.3 39 +33 +33 душно 1013.2 1008.4
14 20.09 ЮВ 2-3
{5}
н/о н/о +32.1 +14.7 35 +34 +34 душно 1012.5 1007.7
15 20.09 Ю 1-3
{5}
н/о н/о +32.8 +14.9 34 +35 +35 душно 1011.7 1006.9
16 20.09 Ю 2-4
{6}
н/о н/о +31.2 +13.0 33 +32 +32 жарко 1011.5 1006.7
17 20.09 ЮВ 2-3
{4}
н/о н/о +29.2 +14.2 40 +31 +31 жарко 1011.5 1006.6
18 20.09 ЮВ 2-2
{2}
н/о н/о +26.4 +17.2 57 +30 +30 душно 1011.3 1006.4 +15.9 +33.0
19 20.09 В 2-3
{4}
н/о н/о +25.7 +16.3 56 +29 +29 душно 1011.7 1006.8
20 20.09 В 1-2
{3}
н/о н/о +24.9 +14.1 51 +27 +27 жарко 1011.6 1006.7
21 20.09 ЮВ 1-2
{3}
н/о н/о +25.9 +13.7 47 +28 +28 жарко 1012.0 1007.1
22 20.09 ЮЗ 3-5
{5}
н/о н/о +25.7 +13.9 48 +28 +28 жарко 1012.7 1007.8
23 20.09 Ю 3-4
{6}
н/о н/о +25.5 +15.2 53 +28 +28 жарко 1011.8 1006.9
00 21.09 Ю 3
{12}
20 км 6/6 1000 м
[Sc Ac As]
+24.9 +13.1 48 +27 +27 жарко 1011.6 1006.7
01 21.09 Ю 4-5
{5}
н/о н/о +24.2 +13.4 51 +26 +26 жарко 1011.5 1006.5
02 21.09 В 1-2
{7}
н/о н/о +23.5 +14.2 56 +26 +26 жарко 1011.9 1006.9
03 21.09 ЮВ 4
{14}
20 км 6/6 1000 м
[Sc diur, vesp Ac As]
+23.3 +14.0 56 +27 +27 душно 1010.8 1005.8
04 21.09 ЮВ 3-5
{6}
н/о н/о +22.8 +14.1 58 +26 +26 жарко 1010.9 1005.9
05 21.09 ЮВ 3-7
{7}
н/о н/о +22.9 +14.2 58 +26 +26 жарко 1010.6 1005.6
06 21.09 ЮВ 4-14
{16}
20 км 9/9 1000 м
[Cu Sc]
+22.7 +14.5 60 +26 +26 жарко 1010.4 1005.4 +22.6 +26.3
07 21.09 ЮВ 3-6
{6}
н/о н/о +22.8 +14.6 60 +26 +26 жарко 1010.1 1005.1
08 21.09 С 1-2
{5}
н/о н/о +23.1 +15.4 62 +27 +27 душно 1011.0 1006.0
09 21.09 Ю 6
{16}
30 км 8/6 1200 м
[Cu Sc Ac und Ci sp]
+24.1 +14.8 56 +27 +27 жарко 1010.2 1005.3
10 21.09 Ю 4-7
{9}
н/о н/о +24.9 +15.0 54 +28 +28 жарко 1010.5 1005.6
11 21.09 Ю 4-7
{7}
н/о н/о +25.6 +14.7 51 +28 +28 жарко 1010.4 1005.5
12 21.09 Ю 3
{12}
22 км 8/8 700 м
[Sc diur, vesp Ac As]
+26.2 +15.0 50 +29 +31 жарко 1009.7 1004.8
13 21.09 Ю 4-7
{7}
н/о н/о +28.5 +14.7 43 +31 +31 душно 1009.2 1004.3
14 21.09 Ю 3-5
{6}
н/о н/о +28.7 +14.9 43 +31 +31 жарко 1008.5 1003.6
15 21.09 ЮВ 1
{9}
22 км 8/8 700 м
[Sc diur, vesp Ac As]
+27.4 +15.4 48 +30 +32 жарко 1007.9 1003.0
16 21.09 ЮВ 2-3
{4}
н/о н/о +27.4 +15.4 48 +30 +30 жарко 1007.5 1002.6
17 21.09 Ю 2-2
{4}
н/о н/о +27.1 +14.8 47 +30 +30 душно 1007.2 1002.3
18 21.09 Ю 2
{7}
25 км 9/9 900 м
[Cu Sc Ac As]
+26.5 +13.9 46 +29 +29 жарко 1006.8 1001.9 +22.6 +28.9
19 21.09 Ю 2-3
{6}
н/о н/о +25.9 +13.7 47 +28 +28 жарко 1006.9 1002.0
20 21.09 Ю 5
{9}
н/о н/о +26.3 +12.7 43 +28 +28 жарко 1007.1 1002.2
21 21.09 Ю 3-5
{5}
24 км 5/0
[Ac As]
+25.9 +13.1 45 +28 +28 жарко 1007.0 1002.1
22 21.09 ЮВ 3-5
{6}
н/о н/о +25.1 +13.3 48 +27 +27 жарко 1006.9 1002.0
23 21.09 Ю 3-6
{6}
н/о н/о +25.5 +14.0 49 +28 +28 жарко 1006.8 1001.9
00 22.09 Ю 2-4
{6}
н/о н/о +25.2 +14.0 50 +28 +28 жарко 1007.0 1002.1
01 22.09 Ю 3-5
{7}
н/о н/о +25.0 +14.5 52 +28 +28 жарко 1007.7 1002.8
02 22.09 З 5-7
{10}
н/о н/о +20.4 +17.6 84 +24 +24 комфорт 1009.3 1004.3
03 22.09 З 4
{12}
18 км 8/6 900 м
[Frnb As op]
+19.5 +16.5 83 +22 +22 комфорт 1009.9 1004.9 0.2
04 22.09 З 4-6
{6}
н/о {дождь} н/о +17.9 +16.1 89 +18 +18 1010.3 1005.3 2
05 22.09 СЗ 4-5
{5}
н/о н/о +17.3 +16.0 92 +17 +17 1011.4 1006.3 8
06 22.09 СЗ 4
{11}
н/о н/о +16.9 +15.6 92 +16 +16 1011.9 1006.8 +16.6 +26.5 13
07 22.09 С 1-2
{4}
н/о {дождь} н/о +16.8 +15.7 93 +18 +18 1012.6 1007.5 5
08 22.09 Ю 2-2
{3}
н/о н/о +17.0 +15.9 93 +18 +18 1013.5 1008.4 0.6
09 22.09 Ю 2
{6}
24 км {дождь} 10/10 300 м
[Frnb]
+17.3 +15.6 90 +17 +17 1013.8 1008.7 5
10 22.09 Ю 2-3
{4}
н/о н/о +18.7 +15.9 84 +20 +20 1014.0 1008.9
11 22.09 ЮВ 1-2
{3}
н/о н/о +20.9 +16.7 77 +26 +26 душно 1014.1 1009.1
12 22.09 СВ 1
{5}
22 км {дождь} 10/10 300 м
[Frnb Ac As]
+22.5 +16.5 69 +27 +27 душно 1014.2 1009.2
13 22.09 СЗ 1-2
{2}
н/о н/о +23.9 +15.7 60 +27 +27 жарко 1014.3 1009.3

 

Местоположение метеостанции Сибур (Франция): широта 43.40 долгота -1.68 высота над уровнем моря 25 м.

В архиве по умолчанию представлена погода в Сибуре за последнюю неделю. Архивные данные за месяц целиком и за предыдущие месяцы, начиная с января 2011 года, Вы можете получить, выбрав интересующий диапазон дат из раскрывающегося списка и нажав кнопку "Ввод!".


*Определитесь, кто Вы:
робот инопланетянин человек

Внимание! Время в таблицах - всемирное. Для получения местного времени необходимо прибавить поправку, которая равна 1 ч.

Смотрите также архив погоды в соседних городах и на ближайших метеорологических станциях:

Погода Сан-Себастьян аэропорту (Испания) (11 км)
Погода в Биаррице (Франция) (14 км)
Погода в Сан-Себастьяне (Испания) (30 км)
Погода в Ирурите (Испания) (31 км)
Погода на Мысе Зумая (Испания) (47 км)
Погода в Даксе (Франция) (58 км)
Погода в Элгойбар - Ибердрола (Испания) (63 км)
Погода в Зумаррага - Урзабалета (Испания) (63 км)
Погода на Мысе Лекейтио (Испания) (67 км)
Погода в Илундайне (Испания) (70 км)

Пояснения к столбцам:

Ветер - указаны скорость ветра в м/с - средняя за 10 мин, порывы в срок и между сроками (в фигурных скобках) и направление, откуда дует ветер: С - северный, СВ - северо-восточный, В - восточный, ЮВ - юго-восточный, Ю - южный, ЮЗ - юго-западный, З - западный, СЗ - северо-западный.
Видимость - горизонтальная дальность видимости в метрах или километрах. При видимости от 1 до 10 км при отсутствии осадков обычно наблюдается дымка, при ухудшении видимости до 1 км и менее - туман. В сухую погоду видимость может ухудшаться дымом, пылью или мглою.
Явления - указаны атмосферные явления, наблюдавшиеся в срок или в последний час перед сроком; фигурными скобками обозначены явления, наблюдавшиеся между сроками (за 1-3 часа до срока); квадратными скобками обозначены град или гололедные отложения с указанием их диаметра в мм.
Облачность - указаны через наклонную черту общая и нижняя облачность в баллах и высота нижней границы облаков в метрах; квадратными скобками обозначены формы облаков: Ci - перистые, Cs - перисто-слоистые, Cc - перисто-кучевые, Ac - высококучевые, As - высокослоистые, Sc - слоисто-кучевые, Ns - слоисто-дождевые, Cu - кучевые, Cb - кучево-дождевые. Подробнее классификацию облаков см. в Атласе облаков (PDF).
T - Температура воздуха - температура, измеренная на высоте 2 м над землей.
Td - Температура точки росы - температура, при понижении до которой содержащийся в воздухе водяной пар достигнет насыщения.
f - Относительная влажность воздуха - влажноcть воздуха, измеренная на высоте 2 м над землей.
Te - Эффективная температура - температура, которую ощущает одетый по сезону человек в тени. Характеристика душности погоды. При расчете учитывается влияние влажности воздуха и скорости ветра на теплоощущения человека.
Tes - Эффективная температура на солнце - температура, которую ощущает человек, с поправкой на солнечный нагрев. Характеристика знойности погоды. Зависит от высоты солнца над горизонтом, облачности и скорости ветра. Ночью, в пасмурную погоду, а также при ветре 12 м/с и более поправка равна нулю.
P - Атмосферное давление - приведенное к уровню моря атмосферное давление.
Po - Атмосферное давление - измеренное на уровне метеостанции атмосферное давление.
Tmin - Минимальная температура - минимум температуры воздуха на высоте 2 м над землей.
Tmax - Максимальная температура - максимум температуры воздуха на высоте 2 м над землей.
R - Количество осадков - Количество выпавших осадков за период времени, мм. При наведении курсора мыши на число - период времени, за который выпало указанное количество осадков.
R24 - Количество осадков - Количество выпавших осадков за 24 часа, мм.
S - Снежный покров - Высота снежного покрова, см. При наведении курсора мыши на число - состояние снежного покрова и степень покрытия местности в баллах.